Time,TemperatureF,DewpointF,PressureIn,WindDirection,WindDirectionDegrees,WindSpeedMPH,WindSpeedGustMPH,Humidity,HourlyPrecipIn,Conditions,Clouds,dailyrainin,SoftwareType,DateUTC
2013-01-21 00:00:00,37.6,32.6,30.15,ENE,68,0.0,0.0,82,0.00,,---,0.00,VWS V14.01,2013-01-21 08:00:00,
2013-01-21 00:05:00,37.4,32.4,30.15,South,180,0.0,0.0,82,0.00,,---,0.00,VWS V14.01,2013-01-21 08:05:00,
2013-01-21 00:10:00,37.4,32.4,30.15,South,180,0.0,0.0,82,0.00,,---,0.00,VWS V14.01,2013-01-21 08:10:00,
2013-01-21 00:15:00,37.2,32.2,30.15,SE,135,0.0,0.0,82,0.00,,---,0.00,VWS V14.01,2013-01-21 08:15:00,
2013-01-21 00:20:00,37.0,32.1,30.15,SSE,158,0.0,0.0,82,0.00,,---,0.00,VWS V14.01,2013-01-21 08:20:00,
2013-01-21 00:25:00,36.9,31.9,30.15,SSE,158,0.0,0.0,82,0.00,,---,0.00,VWS V14.01,2013-01-21 08:25:00,
2013-01-21 00:30:00,36.9,31.9,30.15,SSE,158,0.0,0.0,82,0.00,,---,0.00,VWS V14.01,2013-01-21 08:30:00,
2013-01-21 00:35:00,36.9,31.9,30.15,SSE,158,0.0,0.0,82,0.00,,---,0.00,VWS V14.01,2013-01-21 08:35:00,
2013-01-21 00:41:00,36.7,31.7,30.12,SSE,158,0.0,0.0,82,0.00,,---,0.00,VWS V14.01,2013-01-21 08:41:00,
2013-01-21 00:46:00,36.7,31.7,30.12,SSE,158,0.0,0.0,82,0.00,,---,0.00,VWS V14.01,2013-01-21 08:46:00,
2013-01-21 00:51:00,36.5,31.5,30.12,ESE,112,0.0,0.0,82,0.00,,---,0.00,VWS V14.01,2013-01-21 08:51:00,
2013-01-21 00:56:00,36.5,31.5,30.12,SSE,158,0.0,0.0,82,0.00,,---,0.00,VWS V14.01,2013-01-21 08:56:00,
2013-01-21 01:01:00,36.3,31.4,30.12,NNE,22,0.0,0.0,82,0.00,,---,0.00,VWS V14.01,2013-01-21 09:01:00,
2013-01-21 01:06:00,36.3,31.4,30.12,NNE,22,0.0,0.0,82,0.00,,---,0.00,VWS V14.01,2013-01-21 09:06:00,
2013-01-21 01:11:00,36.1,31.2,30.12,NNE,22,0.0,0.0,82,0.00,,---,0.00,VWS V14.01,2013-01-21 09:11:00,
2013-01-21 01:16:00,36.1,31.2,30.12,NNE,22,0.0,0.0,82,0.00,,---,0.00,VWS V14.01,2013-01-21 09:16:00,
2013-01-21 01:22:00,36.1,31.2,30.12,NNE,22,0.0,0.0,82,0.00,,---,0.00,VWS V14.01,2013-01-21 09:22:00,
2013-01-21 01:27:00,36.1,31.2,30.12,NNE,22,0.0,0.0,82,0.00,,---,0.00,VWS V14.01,2013-01-21 09:27:00,
2013-01-21 01:32:00,36.0,31.0,30.12,NNE,22,0.0,0.0,82,0.00,,---,0.00,VWS V14.01,2013-01-21 09:32:00,
2013-01-21 01:37:00,35.8,30.8,30.12,NNE,22,0.0,0.0,82,0.00,,---,0.00,VWS V14.01,2013-01-21 09:37:00,
2013-01-21 01:43:00,35.8,30.8,30.12,NNE,22,0.0,0.0,82,0.00,,---,0.00,VWS V14.01,2013-01-21 09:43:00,
2013-01-21 01:48:00,35.8,30.8,30.12,NNE,22,0.0,0.0,82,0.00,,---,0.00,VWS V14.01,2013-01-21 09:48:00,
2013-01-21 01:53:00,35.6,30.7,30.12,NNE,22,0.0,0.0,82,0.00,,---,0.00,VWS V14.01,2013-01-21 09:53:00,
2013-01-21 01:58:00,35.6,30.7,30.12,North,0,0.0,0.0,82,0.00,,---,0.00,VWS V14.01,2013-01-21 09:58:00,
2013-01-21 02:03:00,35.6,30.7,30.12,North,0,0.0,0.0,82,0.00,,---,0.00,VWS V14.01,2013-01-21 10:03:00,
2013-01-21 02:08:00,35.6,30.7,30.12,South,180,0.0,0.0,82,0.00,,---,0.00,VWS V14.01,2013-01-21 10:08:00,
2013-01-21 02:13:00,35.4,30.8,30.12,East,90,0.0,0.0,83,0.00,,---,0.00,VWS V14.01,2013-01-21 10:13:00,
2013-01-21 02:18:00,35.4,30.8,30.12,South,180,0.0,0.0,83,0.00,,---,0.00,VWS V14.01,2013-01-21 10:18:00,
2013-01-21 02:23:00,35.2,30.6,30.12,ESE,112,0.0,0.0,83,0.00,,---,0.00,VWS V14.01,2013-01-21 10:23:00,
2013-01-21 02:28:00,35.2,30.6,30.12,ESE,112,0.0,0.0,83,0.00,,---,0.00,VWS V14.01,2013-01-21 10:28:00,
2013-01-21 02:33:00,35.2,30.6,30.12,South,180,0.0,0.0,83,0.00,,---,0.00,VWS V14.01,2013-01-21 10:33:00,
2013-01-21 02:39:00,35.2,30.6,30.12,South,180,0.0,0.0,83,0.00,,---,0.00,VWS V14.01,2013-01-21 10:39:00,
2013-01-21 02:44:00,35.1,30.4,30.12,South,180,0.0,0.0,83,0.00,,---,0.00,VWS V14.01,2013-01-21 10:44:00,
2013-01-21 02:49:00,35.1,30.4,30.12,South,180,0.0,0.0,83,0.00,,---,0.00,VWS V14.01,2013-01-21 10:49:00,
2013-01-21 02:54:00,35.1,30.4,30.12,South,180,0.0,0.0,83,0.00,,---,0.00,VWS V14.01,2013-01-21 10:54:00,
2013-01-21 02:59:00,35.1,30.4,30.12,South,180,0.0,0.0,83,0.00,,---,0.00,VWS V14.01,2013-01-21 10:59:00,
2013-01-21 03:04:00,34.9,30.2,30.12,South,180,0.0,0.0,83,0.00,,---,0.00,VWS V14.01,2013-01-21 11:04:00,
2013-01-21 03:09:00,35.1,30.4,30.09,South,180,0.0,0.0,83,0.00,,---,0.00,VWS V14.01,2013-01-21 11:09:00,
2013-01-21 03:14:00,34.9,30.2,30.09,South,180,0.0,0.0,83,0.00,,---,0.00,VWS V14.01,2013-01-21 11:14:00,
2013-01-21 03:19:00,34.9,30.2,30.09,South,180,0.0,0.0,83,0.00,,---,0.00,VWS V14.01,2013-01-21 11:19:00,
2013-01-21 03:24:00,34.9,30.5,30.09,South,180,0.0,0.0,84,0.00,,---,0.00,VWS V14.01,2013-01-21 11:24:00,
2013-01-21 03:29:00,34.9,30.5,30.09,South,180,0.0,0.0,84,0.00,,---,0.00,VWS V14.01,2013-01-21 11:29:00,
2013-01-21 03:34:00,34.7,30.4,30.09,South,180,0.0,0.0,84,0.00,,---,0.00,VWS V14.01,2013-01-21 11:34:00,
2013-01-21 03:39:00,34.5,30.2,30.09,South,180,0.0,0.0,84,0.00,,---,0.00,VWS V14.01,2013-01-21 11:39:00,
2013-01-21 03:44:00,34.3,30.0,30.09,South,180,0.0,0.0,84,0.00,,---,0.00,VWS V14.01,2013-01-21 11:44:00,
2013-01-21 03:49:00,34.3,29.7,30.09,South,180,0.0,0.0,83,0.00,,---,0.00,VWS V14.01,2013-01-21 11:49:00,
2013-01-21 03:54:00,34.3,29.7,30.09,South,180,0.0,0.0,83,0.00,,---,0.00,VWS V14.01,2013-01-21 11:54:00,
2013-01-21 04:00:00,34.3,29.7,30.09,South,180,0.0,0.0,83,0.00,,---,0.00,VWS V14.01,2013-01-21 12:00:00,
2013-01-21 04:05:00,34.3,29.7,30.09,South,180,2.2,2.2,83,0.00,,---,0.00,VWS V14.01,2013-01-21 12:05:00,
2013-01-21 04:10:00,34.2,29.8,30.09,South,180,2.2,2.2,84,0.00,,---,0.00,VWS V14.01,2013-01-21 12:10:00,
2013-01-21 04:15:00,34.2,29.8,30.09,South,180,2.2,2.2,84,0.00,,---,0.00,VWS V14.01,2013-01-21 12:15:00,
2013-01-21 04:20:00,34.0,29.7,30.09,South,180,2.2,2.2,84,0.00,,---,0.00,VWS V14.01,2013-01-21 12:20:00,
2013-01-21 04:25:00,34.0,29.7,30.09,South,180,2.2,2.2,84,0.00,,---,0.00,VWS V14.01,2013-01-21 12:25:00,
2013-01-21 04:30:00,33.8,29.5,30.09,South,180,2.2,2.2,84,0.00,,---,0.00,VWS V14.01,2013-01-21 12:30:00,
2013-01-21 04:35:00,33.8,29.5,30.09,South,180,2.2,2.2,84,0.00,,---,0.00,VWS V14.01,2013-01-21 12:35:00,
2013-01-21 04:40:00,34.0,29.7,30.09,South,180,2.2,2.2,84,0.00,,---,0.00,VWS V14.01,2013-01-21 12:40:00,
2013-01-21 04:45:00,33.8,29.5,30.09,South,180,2.2,2.2,84,0.00,,---,0.00,VWS V14.01,2013-01-21 12:45:00,
2013-01-21 04:50:00,33.8,29.5,30.09,South,180,2.2,2.2,84,0.00,,---,0.00,VWS V14.01,2013-01-21 12:50:00,
2013-01-21 04:55:00,33.8,29.5,30.06,South,180,2.2,2.2,84,0.00,,---,0.00,VWS V14.01,2013-01-21 12:55:00,
2013-01-21 05:00:00,33.8,29.5,30.06,South,180,2.2,2.2,84,0.00,,---,0.00,VWS V14.01,2013-01-21 13:00:00,
2013-01-21 05:05:00,33.6,29.6,30.06,South,180,2.2,2.2,85,0.00,,---,0.00,VWS V14.01,2013-01-21 13:05:00,
2013-01-21 05:10:00,33.6,29.6,30.06,South,180,2.2,2.2,85,0.00,,---,0.00,VWS V14.01,2013-01-21 13:10:00,
2013-01-21 05:15:00,33.6,29.6,30.06,South,180,2.2,2.2,85,0.00,,---,0.00,VWS V14.01,2013-01-21 13:15:00,
2013-01-21 05:20:00,33.4,29.4,30.06,South,180,0.0,2.2,85,0.00,,---,0.00,VWS V14.01,2013-01-21 13:20:00,
2013-01-21 05:25:00,33.4,29.4,30.06,South,180,0.0,0.0,85,0.00,,---,0.00,VWS V14.01,2013-01-21 13:25:00,
2013-01-21 05:30:00,33.4,29.4,30.06,South,180,0.0,0.0,85,0.00,,---,0.00,VWS V14.01,2013-01-21 13:30:00,
2013-01-21 05:35:00,33.4,29.4,30.06,South,180,0.0,0.0,85,0.00,,---,0.00,VWS V14.01,2013-01-21 13:35:00,
2013-01-21 05:40:00,33.4,29.1,30.06,South,180,0.0,0.0,84,0.00,,---,0.00,VWS V14.01,2013-01-21 13:40:00,
2013-01-21 05:45:00,33.3,29.0,30.06,South,180,0.0,0.0,84,0.00,,---,0.00,VWS V14.01,2013-01-21 13:45:00,
2013-01-21 05:50:00,33.1,29.1,30.06,South,180,0.0,0.0,85,0.00,,---,0.00,VWS V14.01,2013-01-21 13:50:00,
2013-01-21 05:55:00,33.1,29.1,30.06,South,180,0.0,0.0,85,0.00,,---,0.00,VWS V14.01,2013-01-21 13:55:00,
2013-01-21 06:00:00,32.9,28.9,30.06,South,180,0.0,0.0,85,0.00,,---,0.00,VWS V14.01,2013-01-21 14:00:00,
2013-01-21 06:05:00,32.9,28.9,30.06,South,180,0.0,0.0,85,0.00,,---,0.00,VWS V14.01,2013-01-21 14:05:00,
2013-01-21 06:10:00,32.7,28.7,30.06,South,180,0.0,0.0,85,0.00,,---,0.00,VWS V14.01,2013-01-21 14:10:00,
2013-01-21 06:15:00,32.7,28.7,30.06,South,180,0.0,0.0,85,0.00,,---,0.00,VWS V14.01,2013-01-21 14:15:00,
2013-01-21 06:20:00,32.5,28.5,30.06,South,180,0.0,0.0,85,0.00,,---,0.00,VWS V14.01,2013-01-21 14:20:00,
2013-01-21 06:25:00,32.5,28.5,30.09,South,180,0.0,0.0,85,0.00,,---,0.00,VWS V14.01,2013-01-21 14:25:00,
2013-01-21 06:30:00,32.5,28.5,30.09,South,180,0.0,0.0,85,0.00,,---,0.00,VWS V14.01,2013-01-21 14:30:00,
2013-01-21 06:35:00,32.5,28.5,30.09,South,180,0.0,0.0,85,0.00,,---,0.00,VWS V14.01,2013-01-21 14:35:00,
2013-01-21 06:41:00,32.5,28.5,30.09,South,180,0.0,0.0,85,0.00,,---,0.00,VWS V14.01,2013-01-21 14:41:00,
2013-01-21 06:46:00,32.5,28.5,30.09,South,180,0.0,0.0,85,0.00,,---,0.00,VWS V14.01,2013-01-21 14:46:00,
2013-01-21 06:51:00,32.4,28.4,30.09,South,180,0.0,0.0,85,0.00,,---,0.00,VWS V14.01,2013-01-21 14:51:00,
2013-01-21 06:56:00,32.2,28.2,30.09,South,180,0.0,0.0,85,0.00,,---,0.00,VWS V14.01,2013-01-21 14:56:00,
2013-01-21 07:01:00,32.2,28.2,30.09,South,180,0.0,0.0,85,0.00,,---,0.00,VWS V14.01,2013-01-21 15:01:00,
2013-01-21 07:06:00,32.0,28.0,30.09,South,180,0.0,0.0,85,0.00,,---,0.00,VWS V14.01,2013-01-21 15:06:00,
2013-01-21 07:11:00,32.0,28.3,30.09,South,180,0.0,0.0,86,0.00,,---,0.00,VWS V14.01,2013-01-21 15:11:00,
2013-01-21 07:16:00,32.0,28.3,30.09,South,180,0.0,0.0,86,0.00,,---,0.00,VWS V14.01,2013-01-21 15:16:00,
2013-01-21 07:21:00,32.0,28.3,30.09,South,180,0.0,0.0,86,0.00,,---,0.00,VWS V14.01,2013-01-21 15:21:00,
2013-01-21 07:26:00,32.0,28.3,30.09,South,180,0.0,0.0,86,0.00,,---,0.00,VWS V14.01,2013-01-21 15:26:00,
2013-01-21 07:31:00,31.8,28.1,30.09,South,180,0.0,0.0,86,0.00,,---,0.00,VWS V14.01,2013-01-21 15:31:00,
2013-01-21 07:36:00,32.0,28.3,30.09,South,180,0.0,0.0,86,0.00,,---,0.00,VWS V14.01,2013-01-21 15:36:00,
2013-01-21 07:41:00,32.0,28.3,30.09,South,180,0.0,0.0,86,0.00,,---,0.00,VWS V14.01,2013-01-21 15:41:00,
2013-01-21 07:46:00,32.0,28.3,30.09,South,180,0.0,0.0,86,0.00,,---,0.00,VWS V14.01,2013-01-21 15:46:00,
2013-01-21 07:51:00,32.2,28.5,30.09,South,180,0.0,0.0,86,0.00,,---,0.00,VWS V14.01,2013-01-21 15:51:00,
2013-01-21 07:56:00,32.2,28.5,30.12,ESE,112,0.0,0.0,86,0.00,,---,0.00,VWS V14.01,2013-01-21 15:56:00,
2013-01-21 08:01:00,32.2,28.5,30.12,ESE,112,0.0,0.0,86,0.00,,---,0.00,VWS V14.01,2013-01-21 16:01:00,
2013-01-21 08:06:00,32.2,28.5,30.12,ESE,112,0.0,0.0,86,0.00,,---,0.00,VWS V14.01,2013-01-21 16:06:00,
2013-01-21 08:11:00,32.2,28.5,30.12,SSE,158,0.0,0.0,86,0.00,,---,0.00,VWS V14.01,2013-01-21 16:11:00,
2013-01-21 08:16:00,32.2,28.5,30.12,ENE,68,0.0,0.0,86,0.00,,---,0.00,VWS V14.01,2013-01-21 16:16:00,
2013-01-21 08:21:00,32.2,28.5,30.12,NE,45,0.0,0.0,86,0.00,,---,0.00,VWS V14.01,2013-01-21 16:21:00,
2013-01-21 08:26:00,32.2,28.5,30.12,West,270,0.0,0.0,86,0.00,,---,0.00,VWS V14.01,2013-01-21 16:26:00,
2013-01-21 08:31:00,32.2,28.5,30.12,South,180,1.3,1.3,86,0.00,,---,0.00,VWS V14.01,2013-01-21 16:31:00,
2013-01-21 08:36:00,32.2,28.5,30.12,SW,225,0.0,1.3,86,0.00,,---,0.00,VWS V14.01,2013-01-21 16:36:00,
2013-01-21 08:41:00,32.2,28.5,30.12,West,270,0.0,0.0,86,0.00,,---,0.00,VWS V14.01,2013-01-21 16:41:00,
2013-01-21 08:46:00,32.4,28.6,30.12,West,270,0.0,0.0,86,0.00,,---,0.00,VWS V14.01,2013-01-21 16:46:00,
2013-01-21 08:51:00,32.4,28.6,30.12,West,270,0.0,0.0,86,0.00,,---,0.00,VWS V14.01,2013-01-21 16:51:00,
2013-01-21 08:56:00,32.5,28.8,30.12,West,270,0.0,0.0,86,0.00,,---,0.00,VWS V14.01,2013-01-21 16:56:00,
2013-01-21 09:01:00,32.5,28.8,30.12,NNW,338,0.0,0.0,86,0.00,,---,0.00,VWS V14.01,2013-01-21 17:01:00,
2013-01-21 09:06:00,32.7,29.0,30.12,WNW,292,0.0,0.0,86,0.00,,---,0.00,VWS V14.01,2013-01-21 17:06:00,
2013-01-21 09:11:00,33.1,29.4,30.15,NW,315,0.0,1.6,86,0.00,,---,0.00,VWS V14.01,2013-01-21 17:11:00,
2013-01-21 09:16:00,33.4,29.7,30.15,West,270,0.0,0.0,86,0.00,,---,0.00,VWS V14.01,2013-01-21 17:16:00,
2013-01-21 09:21:00,33.8,30.1,30.15,North,0,0.0,0.0,86,0.00,,---,0.00,VWS V14.01,2013-01-21 17:21:00,
2013-01-21 09:26:00,34.0,30.2,30.15,NW,315,0.0,0.0,86,0.00,,---,0.00,VWS V14.01,2013-01-21 17:26:00,
2013-01-21 09:31:00,34.3,30.3,30.15,WNW,292,0.0,0.9,85,0.00,,---,0.00,VWS V14.01,2013-01-21 17:31:00,
2013-01-21 09:36:00,34.9,30.8,30.15,South,180,0.0,1.3,85,0.00,,---,0.00,VWS V14.01,2013-01-21 17:36:00,
2013-01-21 09:41:00,35.4,31.4,30.15,West,270,0.0,1.3,85,0.00,,---,0.00,VWS V14.01,2013-01-21 17:41:00,
2013-01-21 09:46:00,35.8,31.7,30.15,NW,315,0.0,2.2,85,0.00,,---,0.00,VWS V14.01,2013-01-21 17:46:00,
2013-01-21 09:51:00,36.1,32.1,30.15,West,270,0.0,2.2,85,0.00,,---,0.00,VWS V14.01,2013-01-21 17:51:00,
2013-01-21 09:56:00,36.3,32.2,30.15,West,270,0.0,0.0,85,0.00,,---,0.00,VWS V14.01,2013-01-21 17:56:00,
2013-01-21 10:01:00,36.5,32.4,30.15,West,270,1.6,2.5,85,0.00,,---,0.00,VWS V14.01,2013-01-21 18:01:00,
2013-01-21 10:06:00,36.7,32.6,30.15,West,270,2.9,2.9,85,0.00,,---,0.00,VWS V14.01,2013-01-21 18:06:00,
2013-01-21 10:12:00,37.0,33.0,30.15,WNW,292,0.0,2.9,85,0.00,,---,0.00,VWS V14.01,2013-01-21 18:12:00,
2013-01-21 10:17:00,37.6,33.2,30.15,SW,225,0.0,2.7,84,0.00,,---,0.00,VWS V14.01,2013-01-21 18:17:00,
2013-01-21 10:22:00,37.8,33.4,30.15,NW,315,0.0,0.0,84,0.00,,---,0.00,VWS V14.01,2013-01-21 18:22:00,
2013-01-21 10:27:00,38.3,33.9,30.15,NW,315,0.0,2.0,84,0.00,,---,0.00,VWS V14.01,2013-01-21 18:27:00,
2013-01-21 10:32:00,38.7,34.2,30.15,NW,315,1.6,1.6,84,0.00,,---,0.00,VWS V14.01,2013-01-21 18:32:00,
2013-01-21 10:37:00,39.0,34.6,30.15,West,270,0.0,2.9,84,0.00,,---,0.00,VWS V14.01,2013-01-21 18:37:00,
2013-01-21 10:42:00,39.6,34.8,30.15,West,270,0.0,0.0,83,0.00,,---,0.00,VWS V14.01,2013-01-21 18:42:00,
2013-01-21 10:47:00,40.1,35.4,30.15,West,270,1.3,1.3,83,0.00,,---,0.00,VWS V14.01,2013-01-21 18:47:00,
2013-01-21 10:52:00,40.5,35.7,30.15,West,270,0.0,1.3,83,0.00,,---,0.00,VWS V14.01,2013-01-21 18:52:00,
2013-01-21 10:57:00,41.4,36.3,30.15,West,270,2.5,2.5,82,0.00,,---,0.00,VWS V14.01,2013-01-21 18:57:00,
2013-01-21 11:02:00,41.7,36.6,30.15,WNW,292,0.0,0.0,82,0.00,,---,0.00,VWS V14.01,2013-01-21 19:02:00,
2013-01-21 11:07:00,42.4,37.3,30.15,North,0,2.5,2.5,82,0.00,,---,0.00,VWS V14.01,2013-01-21 19:07:00,
2013-01-21 11:12:00,43.2,37.7,30.15,NW,315,2.7,2.7,81,0.00,,---,0.00,VWS V14.01,2013-01-21 19:12:00,
2013-01-21 11:17:00,44.6,38.8,30.15,NW,315,0.0,1.6,80,0.00,,---,0.00,VWS V14.01,2013-01-21 19:17:00,
2013-01-21 11:22:00,45.5,39.4,30.15,West,270,0.0,0.0,79,0.00,,---,0.00,VWS V14.01,2013-01-21 19:22:00,
2013-01-21 11:27:00,45.9,39.4,30.15,South,180,0.0,0.0,78,0.00,,---,0.00,VWS V14.01,2013-01-21 19:27:00,
2013-01-21 11:32:00,46.9,40.1,30.15,West,270,0.0,0.0,77,0.00,,---,0.00,VWS V14.01,2013-01-21 19:32:00,
2013-01-21 11:37:00,47.5,40.6,30.15,West,270,0.9,0.9,77,0.00,,---,0.00,VWS V14.01,2013-01-21 19:37:00,
2013-01-21 11:42:00,48.7,41.2,30.15,NW,315,2.9,2.9,75,0.00,,---,0.00,VWS V14.01,2013-01-21 19:42:00,
2013-01-21 11:47:00,49.3,41.7,30.15,West,270,0.0,0.0,75,0.00,,---,0.00,VWS V14.01,2013-01-21 19:47:00,
2013-01-21 11:52:00,50.2,42.2,30.15,SE,135,0.0,2.0,74,0.00,,---,0.00,VWS V14.01,2013-01-21 19:52:00,
2013-01-21 11:57:00,50.5,42.6,30.15,West,270,0.0,0.0,74,0.00,,---,0.00,VWS V14.01,2013-01-21 19:57:00,
2013-01-21 12:02:00,51.4,43.1,30.15,West,270,0.0,2.9,73,0.00,,---,0.00,VWS V14.01,2013-01-21 20:02:00,
2013-01-21 12:07:00,52.7,43.9,30.12,ENE,68,2.0,2.0,72,0.00,,---,0.00,VWS V14.01,2013-01-21 20:07:00,
2013-01-21 12:12:00,53.6,44.8,30.12,SW,225,3.1,3.1,72,0.00,,---,0.00,VWS V14.01,2013-01-21 20:12:00,
2013-01-21 12:17:00,54.5,45.3,30.12,NNW,338,0.0,1.6,71,0.00,,---,0.00,VWS V14.01,2013-01-21 20:17:00,
2013-01-21 12:22:00,55.2,46.0,30.12,WNW,292,2.5,2.7,71,0.00,,---,0.00,VWS V14.01,2013-01-21 20:22:00,
2013-01-21 12:27:00,55.8,46.5,30.12,NW,315,2.7,2.7,71,0.00,,---,0.00,VWS V14.01,2013-01-21 20:27:00,
2013-01-21 12:33:00,56.3,46.7,30.12,WNW,292,3.8,3.8,70,0.00,,---,0.00,VWS V14.01,2013-01-21 20:33:00,
2013-01-21 12:38:00,56.8,46.8,30.12,NNE,22,0.0,0.9,69,0.00,,---,0.00,VWS V14.01,2013-01-21 20:38:00,
2013-01-21 12:43:00,57.4,46.9,30.12,WNW,292,0.0,2.0,68,0.00,,---,0.00,VWS V14.01,2013-01-21 20:43:00,
2013-01-21 12:48:00,57.9,47.4,30.12,West,270,1.3,3.1,68,0.00,,---,0.00,VWS V14.01,2013-01-21 20:48:00,
2013-01-21 12:53:00,58.5,48.0,30.12,West,270,3.4,3.4,68,0.00,,---,0.00,VWS V14.01,2013-01-21 20:53:00,
2013-01-21 12:58:00,59.2,48.2,30.12,WNW,292,4.0,6.5,67,0.00,,---,0.00,VWS V14.01,2013-01-21 20:58:00,
2013-01-21 13:03:00,59.5,49.0,30.12,South,180,0.9,3.8,68,0.00,,---,0.00,VWS V14.01,2013-01-21 21:03:00,
2013-01-21 13:08:00,59.9,48.9,30.12,NW,315,3.6,3.6,67,0.00,,---,0.00,VWS V14.01,2013-01-21 21:08:00,
2013-01-21 13:13:00,60.4,49.4,30.12,NNW,338,3.4,3.4,67,0.00,,---,0.00,VWS V14.01,2013-01-21 21:13:00,
2013-01-21 13:18:00,60.8,49.4,30.12,NNW,338,2.5,2.7,66,0.00,,---,0.00,VWS V14.01,2013-01-21 21:18:00,
2013-01-21 13:23:00,61.0,49.5,30.12,NNW,338,5.4,5.4,66,0.00,,---,0.00,VWS V14.01,2013-01-21 21:23:00,
2013-01-21 13:28:00,61.5,49.7,30.12,NW,315,3.1,3.8,65,0.00,,---,0.00,VWS V14.01,2013-01-21 21:28:00,
2013-01-21 13:33:00,61.9,50.0,30.12,NNW,338,3.1,3.1,65,0.00,,---,0.00,VWS V14.01,2013-01-21 21:33:00,
2013-01-21 13:38:00,62.2,50.3,30.12,South,180,3.4,4.0,65,0.00,,---,0.00,VWS V14.01,2013-01-21 21:38:00,
2013-01-21 13:43:00,62.6,50.7,30.12,North,0,0.0,2.7,65,0.00,,---,0.00,VWS V14.01,2013-01-21 21:43:00,
2013-01-21 13:48:00,65.8,52.5,30.12,NNE,22,2.7,2.7,62,0.00,,---,0.00,VWS V14.01,2013-01-21 21:48:00,
2013-01-21 13:53:00,66.4,51.6,30.09,NNW,338,2.5,2.7,59,0.00,,---,0.00,VWS V14.01,2013-01-21 21:53:00,
2013-01-21 13:58:00,66.4,52.1,30.09,SW,225,1.1,3.4,60,0.00,,---,0.00,VWS V14.01,2013-01-21 21:58:00,
2013-01-21 14:03:00,67.1,52.8,30.09,WNW,292,3.6,3.6,60,0.00,,---,0.00,VWS V14.01,2013-01-21 22:03:00,
2013-01-21 14:08:00,67.6,52.3,30.09,NW,315,3.1,3.1,58,0.00,,---,0.00,VWS V14.01,2013-01-21 22:08:00,
2013-01-21 14:13:00,68.2,52.9,30.09,NE,45,3.6,3.6,58,0.00,,---,0.00,VWS V14.01,2013-01-21 22:13:00,
2013-01-21 14:18:00,68.7,53.4,30.09,SW,225,2.2,2.2,58,0.00,,---,0.00,VWS V14.01,2013-01-21 22:18:00,
2013-01-21 14:23:00,69.6,54.7,30.09,South,180,2.7,3.1,59,0.00,,---,0.00,VWS V14.01,2013-01-21 22:23:00,
2013-01-21 14:29:00,70.0,54.5,30.09,ESE,112,3.4,3.4,58,0.00,,---,0.00,VWS V14.01,2013-01-21 22:29:00,
2013-01-21 14:34:00,70.2,53.3,30.09,SE,135,0.0,2.9,55,0.00,,---,0.00,VWS V14.01,2013-01-21 22:34:00,
2013-01-21 14:39:00,70.9,54.4,30.09,West,270,1.3,1.3,56,0.00,,---,0.00,VWS V14.01,2013-01-21 22:39:00,
2013-01-21 14:44:00,70.7,53.3,30.09,SW,225,0.0,3.1,54,0.00,,---,0.00,VWS V14.01,2013-01-21 22:44:00,
2013-01-21 14:49:00,70.3,53.4,30.09,North,0,0.0,1.3,55,0.00,,---,0.00,VWS V14.01,2013-01-21 22:49:00,
2013-01-21 14:54:00,70.7,53.3,30.09,NNW,338,2.7,2.7,54,0.00,,---,0.00,VWS V14.01,2013-01-21 22:54:00,
2013-01-21 14:59:00,70.3,53.9,30.09,NNW,338,2.0,2.0,56,0.00,,---,0.00,VWS V14.01,2013-01-21 22:59:00,
2013-01-21 15:04:00,69.8,53.9,30.09,NNW,338,0.0,2.9,57,0.00,,---,0.00,VWS V14.01,2013-01-21 23:04:00,
2013-01-21 15:09:00,68.9,53.1,30.09,NNW,338,3.8,3.8,57,0.00,,---,0.00,VWS V14.01,2013-01-21 23:09:00,
2013-01-21 15:14:00,68.7,53.4,30.09,NW,315,2.0,3.4,58,0.00,,---,0.00,VWS V14.01,2013-01-21 23:14:00,
2013-01-21 15:19:00,68.4,53.0,30.09,NNW,338,2.9,4.0,58,0.00,,---,0.00,VWS V14.01,2013-01-21 23:19:00,
2013-01-21 15:24:00,68.0,52.7,30.06,NW,315,2.5,3.4,58,0.00,,---,0.00,VWS V14.01,2013-01-21 23:24:00,
2013-01-21 15:29:00,67.3,52.5,30.06,NNW,338,1.1,2.7,59,0.00,,---,0.00,VWS V14.01,2013-01-21 23:29:00,
2013-01-21 15:34:00,66.6,52.3,30.06,NW,315,3.4,3.6,60,0.00,,---,0.00,VWS V14.01,2013-01-21 23:34:00,
2013-01-21 15:39:00,65.5,51.7,30.06,NNW,338,2.2,3.4,61,0.00,,---,0.00,VWS V14.01,2013-01-21 23:39:00,
2013-01-21 15:44:00,64.8,51.5,30.06,NW,315,0.0,1.1,62,0.00,,---,0.00,VWS V14.01,2013-01-21 23:44:00,
2013-01-21 15:49:00,64.0,51.2,30.06,NW,315,1.6,2.5,63,0.00,,---,0.00,VWS V14.01,2013-01-21 23:49:00,
2013-01-21 15:54:00,63.5,50.7,30.06,WNW,292,2.9,2.9,63,0.00,,---,0.00,VWS V14.01,2013-01-21 23:54:00,
2013-01-21 15:59:00,62.8,50.4,30.06,WNW,292,0.0,1.6,64,0.00,,---,0.00,VWS V14.01,2013-01-21 23:59:00,
2013-01-21 16:04:00,62.1,50.6,30.06,North,0,2.9,2.9,66,0.00,,---,0.00,VWS V14.01,2013-01-22 00:04:00,
2013-01-21 16:09:00,61.5,50.1,30.06,North,0,0.0,2.7,66,0.00,,---,0.00,VWS V14.01,2013-01-22 00:09:00,
2013-01-21 16:14:00,61.0,50.0,30.06,NW,315,2.5,2.5,67,0.00,,---,0.00,VWS V14.01,2013-01-22 00:14:00,
2013-01-21 16:19:00,60.4,49.8,30.06,NNW,338,0.0,1.1,68,0.00,,---,0.00,VWS V14.01,2013-01-22 00:19:00,
2013-01-21 16:24:00,60.1,49.5,30.06,NNW,338,2.0,2.0,68,0.00,,---,0.00,VWS V14.01,2013-01-22 00:24:00,
2013-01-21 16:29:00,59.7,49.2,30.06,West,270,0.0,0.0,68,0.00,,---,0.00,VWS V14.01,2013-01-22 00:29:00,
2013-01-21 16:34:00,59.2,49.0,30.06,West,270,0.0,0.0,69,0.00,,---,0.00,VWS V14.01,2013-01-22 00:34:00,
2013-01-21 16:39:00,58.8,49.1,30.06,WNW,292,0.0,1.6,70,0.00,,---,0.00,VWS V14.01,2013-01-22 00:39:00,
2013-01-21 16:44:00,58.3,48.5,30.06,West,270,0.0,1.3,70,0.00,,---,0.00,VWS V14.01,2013-01-22 00:44:00,
2013-01-21 16:49:00,57.9,48.2,30.06,West,270,0.0,0.0,70,0.00,,---,0.00,VWS V14.01,2013-01-22 00:49:00,
2013-01-21 16:54:00,57.4,48.1,30.06,West,270,0.0,0.0,71,0.00,,---,0.00,VWS V14.01,2013-01-22 00:54:00,
2013-01-21 16:59:00,57.2,47.9,30.06,North,0,0.0,0.0,71,0.00,,---,0.00,VWS V14.01,2013-01-22 00:59:00,
2013-01-21 17:04:00,56.7,47.8,30.06,ENE,68,0.0,0.0,72,0.00,,---,0.00,VWS V14.01,2013-01-22 01:04:00,
2013-01-21 17:09:00,56.3,47.4,30.06,ENE,68,0.0,0.0,72,0.00,,---,0.00,VWS V14.01,2013-01-22 01:09:00,
2013-01-21 17:14:00,55.8,46.9,30.06,NE,45,0.0,0.0,72,0.00,,---,0.00,VWS V14.01,2013-01-22 01:14:00,
2013-01-21 17:19:00,55.2,46.7,30.06,NE,45,0.0,0.0,73,0.00,,---,0.00,VWS V14.01,2013-01-22 01:19:00,
2013-01-21 17:24:00,54.7,46.2,30.06,NE,45,0.0,0.0,73,0.00,,---,0.00,VWS V14.01,2013-01-22 01:24:00,
2013-01-21 17:29:00,54.5,46.0,30.06,ENE,68,0.0,0.0,73,0.00,,---,0.00,VWS V14.01,2013-01-22 01:29:00,
2013-01-21 17:34:00,54.0,45.5,30.06,East,90,0.0,1.6,73,0.00,,---,0.00,VWS V14.01,2013-01-22 01:34:00,
2013-01-21 17:39:00,53.6,45.5,30.06,ESE,112,0.0,0.0,74,0.00,,---,0.00,VWS V14.01,2013-01-22 01:39:00,
2013-01-21 17:44:00,53.1,45.0,30.06,ESE,112,1.6,2.9,74,0.00,,---,0.00,VWS V14.01,2013-01-22 01:44:00,
2013-01-21 17:49:00,52.7,44.7,30.06,SSE,158,0.0,0.0,74,0.00,,---,0.00,VWS V14.01,2013-01-22 01:49:00,
2013-01-21 17:54:00,52.3,44.3,30.06,SE,135,0.0,1.6,74,0.00,,---,0.00,VWS V14.01,2013-01-22 01:54:00,
2013-01-21 17:59:00,52.0,44.3,30.06,ESE,112,0.0,0.0,75,0.00,,---,0.00,VWS V14.01,2013-01-22 01:59:00,
2013-01-21 18:04:00,51.6,44.0,30.06,East,90,0.0,0.0,75,0.00,,---,0.00,VWS V14.01,2013-01-22 02:04:00,
2013-01-21 18:10:00,51.4,43.8,30.06,ESE,112,0.0,0.0,75,0.00,,---,0.00,VWS V14.01,2013-01-22 02:10:00,
2013-01-21 18:15:00,51.1,43.4,30.06,East,90,0.0,0.0,75,0.00,,---,0.00,VWS V14.01,2013-01-22 02:15:00,
2013-01-21 18:20:00,50.9,43.3,30.06,ENE,68,0.0,0.0,75,0.00,,---,0.00,VWS V14.01,2013-01-22 02:20:00,
2013-01-21 18:25:00,50.5,43.3,30.06,ENE,68,0.0,0.0,76,0.00,,---,0.00,VWS V14.01,2013-01-22 02:25:00,
2013-01-21 18:30:00,50.2,42.9,30.06,ENE,68,0.0,0.0,76,0.00,,---,0.00,VWS V14.01,2013-01-22 02:30:00,
2013-01-21 18:35:00,50.0,42.7,30.06,ESE,112,0.0,0.0,76,0.00,,---,0.00,VWS V14.01,2013-01-22 02:35:00,
2013-01-21 18:40:00,49.8,42.6,30.06,ESE,112,0.0,0.0,76,0.00,,---,0.00,VWS V14.01,2013-01-22 02:40:00,
2013-01-21 18:45:00,49.5,42.2,30.06,East,90,0.0,0.0,76,0.00,,---,0.00,VWS V14.01,2013-01-22 02:45:00,
2013-01-21 18:50:00,49.3,42.4,30.06,SE,135,0.0,0.0,77,0.00,,---,0.00,VWS V14.01,2013-01-22 02:50:00,
2013-01-21 18:55:00,49.1,42.2,30.06,NE,45,0.0,0.0,77,0.00,,---,0.00,VWS V14.01,2013-01-22 02:55:00,
2013-01-21 19:00:00,48.7,41.9,30.06,ENE,68,0.0,0.0,77,0.00,,---,0.00,VWS V14.01,2013-01-22 03:00:00,
2013-01-21 19:05:00,48.6,41.7,30.06,ENE,68,0.0,0.0,77,0.00,,---,0.00,VWS V14.01,2013-01-22 03:05:00,
2013-01-21 19:10:00,48.4,41.5,30.06,NE,45,0.0,0.0,77,0.00,,---,0.00,VWS V14.01,2013-01-22 03:10:00,
2013-01-21 19:15:00,48.2,41.0,30.06,ENE,68,2.0,2.0,76,0.00,,---,0.00,VWS V14.01,2013-01-22 03:15:00,
2013-01-21 19:20:00,48.0,41.2,30.06,East,90,0.0,2.7,77,0.00,,---,0.00,VWS V14.01,2013-01-22 03:20:00,
2013-01-21 19:25:00,47.7,40.8,30.09,ENE,68,2.2,2.2,77,0.00,,---,0.00,VWS V14.01,2013-01-22 03:25:00,
2013-01-21 19:30:00,47.5,40.6,30.09,East,90,0.0,0.0,77,0.00,,---,0.00,VWS V14.01,2013-01-22 03:30:00,
2013-01-21 19:35:00,47.5,40.6,30.09,ENE,68,0.0,0.0,77,0.00,,---,0.00,VWS V14.01,2013-01-22 03:35:00,
2013-01-21 19:40:00,47.3,40.5,30.09,ENE,68,0.0,0.0,77,0.00,,---,0.00,VWS V14.01,2013-01-22 03:40:00,
2013-01-21 19:45:00,46.9,40.5,30.09,SE,135,0.0,0.0,78,0.00,,---,0.00,VWS V14.01,2013-01-22 03:45:00,
2013-01-21 19:50:00,46.9,40.5,30.09,ESE,112,0.0,0.0,78,0.00,,---,0.00,VWS V14.01,2013-01-22 03:50:00,
2013-01-21 19:55:00,46.6,40.1,30.06,SSE,158,0.0,0.0,78,0.00,,---,0.00,VWS V14.01,2013-01-22 03:55:00,
2013-01-21 20:00:00,46.4,39.9,30.06,SSE,158,0.0,0.0,78,0.00,,---,0.00,VWS V14.01,2013-01-22 04:00:00,
2013-01-21 20:05:00,46.4,40.2,30.06,ESE,112,0.0,0.0,79,0.00,,---,0.00,VWS V14.01,2013-01-22 04:05:00,
2013-01-21 20:10:00,46.2,40.1,30.06,ESE,112,0.0,0.0,79,0.00,,---,0.00,VWS V14.01,2013-01-22 04:10:00,
2013-01-21 20:15:00,46.0,39.9,30.06,NE,45,0.0,0.0,79,0.00,,---,0.00,VWS V14.01,2013-01-22 04:15:00,
2013-01-21 20:20:00,45.7,39.5,30.06,NNE,22,0.0,0.0,79,0.00,,---,0.00,VWS V14.01,2013-01-22 04:20:00,
2013-01-21 20:25:00,45.5,39.4,30.06,North,0,0.0,0.0,79,0.00,,---,0.00,VWS V14.01,2013-01-22 04:25:00,
2013-01-21 20:30:00,45.3,39.2,30.06,NW,315,0.0,0.0,79,0.00,,---,0.00,VWS V14.01,2013-01-22 04:30:00,
2013-01-21 20:35:00,45.1,39.0,30.06,NNE,22,0.0,0.0,79,0.00,,---,0.00,VWS V14.01,2013-01-22 04:35:00,
2013-01-21 20:40:00,45.0,38.8,30.09,NNW,338,0.0,0.0,79,0.00,,---,0.00,VWS V14.01,2013-01-22 04:40:00,
2013-01-21 20:45:00,44.8,38.7,30.09,NE,45,0.0,0.0,79,0.00,,---,0.00,VWS V14.01,2013-01-22 04:45:00,
2013-01-21 20:50:00,44.6,38.8,30.09,ENE,68,2.5,3.4,80,0.00,,---,0.00,VWS V14.01,2013-01-22 04:50:00,
2013-01-21 20:55:00,44.6,38.8,30.09,ESE,112,2.7,2.7,80,0.00,,---,0.00,VWS V14.01,2013-01-22 04:55:00,
2013-01-21 21:00:00,44.2,38.5,30.09,SSE,158,0.0,0.0,80,0.00,,---,0.00,VWS V14.01,2013-01-22 05:00:00,
2013-01-21 21:02:00,44.2,38.5,30.09,SE,135,0.0,0.0,80,0.00,,---,0.00,VWS V14.01,2013-01-22 05:02:00,
2013-01-21 21:04:00,44.2,38.8,30.09,SSE,158,0.0,0.0,81,0.00,,---,0.00,VWS V14.01,2013-01-22 05:04:00,
2013-01-21 21:09:00,44.1,38.6,30.09,SSE,158,0.0,0.0,81,0.00,,---,0.00,VWS V14.01,2013-01-22 05:09:00,
2013-01-21 21:14:00,44.1,38.6,30.09,SE,135,0.0,0.0,81,0.00,,---,0.00,VWS V14.01,2013-01-22 05:14:00,
2013-01-21 21:19:00,43.7,38.3,30.09,SE,135,0.0,0.0,81,0.00,,---,0.00,VWS V14.01,2013-01-22 05:19:00,
2013-01-21 21:24:00,43.5,37.8,30.12,ESE,112,2.5,2.5,80,0.00,,---,0.00,VWS V14.01,2013-01-22 05:24:00,
2013-01-21 21:29:00,43.5,38.1,30.12,SE,135,1.6,2.0,81,0.00,,---,0.00,VWS V14.01,2013-01-22 05:29:00,
2013-01-21 21:34:00,43.3,37.9,30.12,SE,135,0.0,0.0,81,0.00,,---,0.00,VWS V14.01,2013-01-22 05:34:00,
2013-01-21 21:39:00,43.3,37.9,30.12,East,90,1.6,2.5,81,0.00,,---,0.00,VWS V14.01,2013-01-22 05:39:00,
2013-01-21 21:44:00,43.2,37.7,30.12,SSE,158,0.0,0.0,81,0.00,,---,0.00,VWS V14.01,2013-01-22 05:44:00,
2013-01-21 21:49:00,43.0,37.6,30.12,SE,135,0.0,0.0,81,0.00,,---,0.00,VWS V14.01,2013-01-22 05:49:00,
2013-01-21 21:54:00,43.0,37.9,30.12,ESE,112,2.2,2.5,82,0.00,,---,0.00,VWS V14.01,2013-01-22 05:54:00,
2013-01-21 21:59:00,43.0,37.9,30.12,East,90,2.5,2.9,82,0.00,,---,0.00,VWS V14.01,2013-01-22 05:59:00,
2013-01-21 22:04:00,43.0,37.9,30.12,ESE,112,3.1,3.1,82,0.00,,---,0.00,VWS V14.01,2013-01-22 06:04:00,
2013-01-21 22:09:00,42.8,38.0,30.12,ESE,112,0.0,2.5,83,0.00,,---,0.00,VWS V14.01,2013-01-22 06:09:00,
2013-01-21 22:14:00,42.6,37.8,30.12,ESE,112,0.0,0.0,83,0.00,,---,0.00,VWS V14.01,2013-01-22 06:14:00,
2013-01-21 22:19:00,42.4,37.7,30.12,ESE,112,2.5,2.7,83,0.00,,---,0.00,VWS V14.01,2013-01-22 06:19:00,
2013-01-21 22:24:00,42.4,37.7,30.12,SE,135,1.6,1.6,83,0.00,,---,0.00,VWS V14.01,2013-01-22 06:24:00,
2013-01-21 22:29:00,42.3,37.5,30.12,SE,135,0.0,2.2,83,0.00,,---,0.00,VWS V14.01,2013-01-22 06:29:00,
2013-01-21 22:34:00,42.1,37.3,30.12,ESE,112,1.6,2.5,83,0.00,,---,0.00,VWS V14.01,2013-01-22 06:34:00,
2013-01-21 22:39:00,42.1,37.3,30.12,ESE,112,0.0,0.0,83,0.00,,---,0.00,VWS V14.01,2013-01-22 06:39:00,
2013-01-21 22:44:00,41.7,37.0,30.12,East,90,1.1,1.6,83,0.00,,---,0.00,VWS V14.01,2013-01-22 06:44:00,
2013-01-21 22:49:00,41.7,36.6,30.12,ESE,112,0.0,0.0,82,0.00,,---,0.00,VWS V14.01,2013-01-22 06:49:00,
2013-01-21 22:54:00,41.5,36.5,30.09,ESE,112,0.0,2.5,82,0.00,,---,0.00,VWS V14.01,2013-01-22 06:54:00,
2013-01-21 22:59:00,41.4,36.3,30.09,SSE,158,0.0,0.0,82,0.00,,---,0.00,VWS V14.01,2013-01-22 06:59:00,
2013-01-21 23:04:00,41.2,36.1,30.09,SSE,158,0.0,0.0,82,0.00,,---,0.00,VWS V14.01,2013-01-22 07:04:00,
2013-01-21 23:09:00,41.2,36.1,30.09,NE,45,0.0,0.0,82,0.00,,---,0.00,VWS V14.01,2013-01-22 07:09:00,
2013-01-21 23:14:00,41.0,35.9,30.09,NE,45,0.0,0.0,82,0.00,,---,0.00,VWS V14.01,2013-01-22 07:14:00,
2013-01-21 23:19:00,40.8,36.1,30.09,North,0,0.0,0.0,83,0.00,,---,0.00,VWS V14.01,2013-01-22 07:19:00,
2013-01-21 23:24:00,40.6,35.9,30.09,ENE,68,0.0,0.0,83,0.00,,---,0.00,VWS V14.01,2013-01-22 07:24:00,
2013-01-21 23:29:00,40.6,35.9,30.09,SE,135,0.0,0.0,83,0.00,,---,0.00,VWS V14.01,2013-01-22 07:29:00,
2013-01-21 23:34:00,40.5,35.7,30.09,South,180,0.0,0.0,83,0.00,,---,0.00,VWS V14.01,2013-01-22 07:34:00,
2013-01-21 23:40:00,40.5,35.4,30.09,South,180,1.1,1.1,82,0.00,,---,0.00,VWS V14.01,2013-01-22 07:40:00,
2013-01-21 23:45:00,40.3,35.5,30.09,East,90,0.0,1.3,83,0.00,,---,0.00,VWS V14.01,2013-01-22 07:45:00,
2013-01-21 23:50:00,40.1,35.4,30.09,NE,45,0.0,0.0,83,0.00,,---,0.00,VWS V14.01,2013-01-22 07:50:00,
2013-01-21 23:55:00,40.1,35.4,30.09,NE,45,0.0,0.0,83,0.00,,---,0.00,VWS V14.01,2013-01-22 07:55:00,